Regional Weather Roundup
Issued by NWS Sioux Falls, SD

Home | Current Version | Previous Version | Text Only | Print | Product List | Glossary Off
Versions: 1 2 3 4 5 6 7 8 9 10 11 12 13 14 15 16 17 18 19 20 21 22 23 24 25 26 27 28 29 30 31 32 33 34 35 36 37 38 39 40 41 42 43 44 45 46 47 48 49 50

387
ASUS43 KFSD 111510
RWRFSD

WEATHER ROUNDUP FOR SE SOUTH DAKOTA/SW MINNESOTA/NW IOWA
NATIONAL WEATHER SERVICE SIOUX FALLS SD
900 AM CST THU FEB 11 2016

NOTE: "FAIR" INDICATES FEW OR NO CLOUDS BELOW 12,000 FEET WITH NO
SIGNIFICANT WEATHER AND OR OBSTRUCTIONS TO VISIBILITY.


SDZ038>040-050-052>070-111600-
SOUTHEAST SOUTH DAKOTA

CITY           SKY/WX    TMP DP  RH WIND       PRES   REMARKS
BROOKINGS      CLOUDY    12   6  77 S13       30.20F WCI  -3
CHAMBERLAIN    CLOUDY    22  21  97 SE10      30.15F FOG     WCI  11
HURON          CLOUDY    18  13  80 S12       30.20S WCI   5
MADISON        CLOUDY    12  10  92 S10       30.19S WCI  -1
MITCHELL       CLOUDY    19  14  81 SE9       30.22S WCI   8
SIOUX FALLS    CLOUDY    14   5  67 SE9       30.24F WCI   2
WINNER         CLOUDY    29  24  82 SE10      30.11F WCI  20
YANKTON        CLOUDY    18  10  73 SE10      30.24F WCI   6
$$

MNZ071-072-080-081-089-090-097-098-111600-
SOUTHWEST MINNESOTA

CITY           SKY/WX    TMP DP  RH WIND       PRES   REMARKS
FAIRMONT       CLOUDY    -2  -6  84 S3        30.28R
JACKSON        CLOUDY     9   3  78 S6        30.26S WCI  -1
LUVERNE        CLOUDY    16   9  73 SE8       30.24F WCI   5
MARSHALL       CLOUDY     8   5  87 S6        30.27F WCI  -2
MONTEVIDEO     CLOUDY     7   3  85 CALM      30.29S
PIPESTONE      CLOUDY    14   3  62 S8        30.20F WCI   3
REDWOOD FALLS  CLOUDY     3  -1  83 S3        30.29F
TRACY          CLOUDY     9   4  79 S5        30.25F WCI   1
WINDOM         CLOUDY    -2  -8  78 CALM      30.26S
WORTHINGTON    CLOUDY     9   0  66 S8        30.25F WCI  -4
$$

IAZ001>003-012>014-020>022-031-032-NEZ013-014-SDZ071-111600-
NORTHWEST IOWA

CITY           SKY/WX    TMP DP  RH WIND       PRES   REMARKS
CHEROKEE       CLOUDY    14   8  76 SE7       30.29S WCI   3
DENISON        CLOUDY    12   3  67 SE6       30.29R WCI   3
ESTHERVILLE    CLOUDY     1  -1  91 S3        30.28R
LE MARS        CLOUDY    16   9  73 SE9       30.29F WCI   4
ORANGE CITY    CLOUDY    14   9  79 CALM      30.26S
SHELDON        CLOUDY    12   7  79 SE8       30.25S WCI   1
SIOUX CITY     CLOUDY    17  10  74 SE10      30.29F WCI   5
SPENCER        CLOUDY    10   0  63 SE7       30.28F WCI  -1
STORM LAKE     CLOUDY    10   3  72 SE7       30.28S WCI   0
$$

ABBREVIATIONS USED IN REMARKS
   TC - TEMPERATURE IN CELSIUS
  WCI - WIND CHILL INDEX
   HX - HEAT INDEX
  VSB - VISIBILITY





USA.gov is the U.S. government's official web portal to all federal, state and local government web resources and services.